FW1286 Weather Reports


Display with metric or nautical units.
time (UTC)temp
F
wind
direction
speed
MPH
gust
MPH
rain 1hr
in
rain 24hr
in
rain mn
in
humidity
%
barometer
mb
20260903064343 79 92 1.0 5.0 0.00 0.00 0.00 82 1011.6
20260903063350 79 105 1.0 5.0 0.00 0.00 0.00 82 1011.7
20260903062358 79 114 2.0 5.0 0.00 0.00 0.00 82 1011.8
20260903061419 80 113 2.0 5.0 0.00 0.00 0.00 82 1011.8
20260903060410 80 104 1.0 7.0 0.00 0.00 0.00 81 1011.9
20260903055338 80 96 2.0 7.0 0.00 0.00 0.00 80 1011.9
20260903054339 80 101 3.0 7.0 0.00 0.00 0.00 80 1011.9
20260903053357 81 59 3.0 8.0 0.00 0.00 0.00 79 1012.0
20260903052329 81 88 3.0 8.0 0.00 0.00 0.00 78 1012.0
20260903050231 81 94 2.0 7.0 0.00 0.00 0.00 76 1011.8
20260903045204 82 49 2.0 7.0 0.00 0.00 0.00 76 1011.7
20260903044212 82 68 2.0 11.0 0.00 0.00 0.00 75 1011.7
20260903043212 83 64 4.0 11.0 0.00 0.00 0.00 75 1011.7
20260903042151 83 69 4.0 9.0 0.00 0.00 0.00 75 1011.9
20260903041213 83 38 4.0 12.0 0.00 0.00 0.00 75 1011.9
20260903040234 83 51 4.0 12.0 0.00 0.00 0.00 74 1011.8
20260903035228 84 66 3.0 8.0 0.00 0.00 0.00 70 1011.8
20260903034217 84 28 2.0 7.0 0.00 0.00 0.00 68 1011.6
20260903033145 85 11 2.0 7.0 0.00 0.00 0.00 67 1011.5
20260903032207 85 59 2.0 6.0 0.00 0.00 0.00 66 1011.5
20260903031214 85 32 3.0 6.0 0.00 0.00 0.00 66 1011.4
20260903030217 85 5 2.0 6.0 0.00 0.00 0.00 67 1011.3
20260903025223 85 12 0.0 6.0 0.00 0.00 0.00 67 1011.2
20260903024233 86 202 0.0 1.0 0.00 0.00 0.00 66 1010.7
20260903023233 86 202 0.0 0.0 0.00 0.00 0.00 65 1010.6
20260903021107 87 202 0.0 3.0 0.00 0.00 0.00 63 1010.3
20260903013819 88 202 0.0 2.0 0.00 0.00 0.00 61 1009.8
20260903012821 89 202 0.0 3.0 0.00 0.00 0.00 61 1010.0
20260903011823 89 202 0.0 1.0 0.00 0.00 0.00 61 1009.8
20260903010818 90 202 0.0 1.0 0.00 0.00 0.00 60 1009.9
20260903005838 91 202 0.0 1.0 0.00 0.00 0.00 60 1009.8
20260903004812 91 202 0.0 1.0 0.00 0.00 0.00 59 1009.8
20260903003744 92 202 0.0 0.0 0.00 0.00 0.00 58 1009.9
20260903002740 93 202 0.0 3.0 0.00 0.00 0.00 58 1009.9
20260903001707 93 202 0.0 1.0 0.00 0.00 0.00 57 1009.8
20260903000703 95 202 0.0 3.0 0.00 0.00 0.00 55 1009.9
20260902235653 96 202 0.0 0.0 0.00 0.00 0.00 52 1009.9
20260902233519 95 197 1.0 5.0 0.00 0.00 0.00 54 1009.9
20260902232522 94 216 2.0 5.0 0.00 0.00 0.00 55 1009.9
20260902231513 95 249 2.0 5.0 0.00 0.00 0.00 55 1009.9
20260902230511 95 151 0.0 1.0 0.00 0.00 0.00 55 1009.9
20260902225442 94 151 0.0 1.0 0.00 0.00 0.00 56 1009.7
20260902224422 94 151 0.0 1.0 0.00 0.00 0.00 55 1009.7
20260902223356 95 151 1.0 4.0 0.00 0.00 0.00 54 1009.7
20260902222416 96 68 0.0 4.0 0.00 0.00 0.00 48 1009.7
20260902220312 96 18 2.0 9.0 0.00 0.00 0.00 50 1009.9
20260902215337 97 331 3.0 9.0 0.00 0.00 0.00 48 1009.9
20260902214339 97 209 2.0 6.0 0.00 0.00 0.00 47 1010.1
20260902213355 97 286 2.0 6.0 0.00 0.00 0.00 48 1010.1
20260902212409 97 319 1.0 6.0 0.00 0.00 0.00 50 1010.2
20260902211401 96 346 1.0 4.0 0.00 0.00 0.00 48 1010.1
20260902210337 96 346 1.0 4.0 0.00 0.00 0.00 48 1010.2
20260902205355 96 355 1.0 4.0 0.00 0.00 0.00 49 1010.3
20260902204414 95 355 1.0 4.0 0.00 0.00 0.00 51 1010.5
20260902203414 95 344 1.0 5.0 0.00 0.00 0.00 51 1010.7
20260902202429 95 277 1.0 5.0 0.00 0.00 0.00 51 1010.9
20260902195132 95 355 1.0 4.0 0.00 0.00 0.00 53 1011.3
20260902194108 95 346 1.0 6.0 0.00 0.00 0.00 53 1011.4
20260902193040 94 327 2.0 6.0 0.00 0.00 0.00 53 1011.6
20260902192023 93 337 3.0 6.0 0.00 0.00 0.00 54 1011.7
20260902185826 95 161 1.0 9.0 0.00 0.00 0.00 51 1011.9
20260902184808 95 309 3.0 9.0 0.00 0.00 0.00 52 1012.0
20260902183809 95 229 3.0 9.0 0.00 0.00 0.00 53 1012.2
20260902181627 95 76 4.0 8.0 0.00 0.00 0.00 53 1012.4
20260902180647 94 140 3.0 8.0 0.00 0.00 0.00 54 1012.7
20260902175711 95 100 2.0 9.0 0.00 0.00 0.00 53 1013.0
20260902173541 94 187 4.0 12.0 0.00 0.00 0.00 55 1013.4
20260902171448 93 296 5.0 15.0 0.00 0.00 0.00 56 1013.7
20260902170428 92 186 4.0 10.0 0.00 0.00 0.00 57 1013.8
20260902164314 92 166 3.0 12.0 0.00 0.00 0.00 59 1014.0
20260902163300 92 153 4.0 10.0 0.00 0.00 0.00 58 1014.1
20260902162254 91 188 6.0 10.0 0.00 0.00 0.00 58 1014.1
20260902160117 90 167 5.0 9.0 0.00 0.00 0.00 58 1014.2
20260902152905 88 172 4.0 10.0 0.00 0.00 0.00 62 1014.4
20260902151830 87 183 6.0 10.0 0.00 0.00 0.00 64 1014.4
20260902150826 87 197 6.0 9.0 0.00 0.00 0.00 67 1014.3
20260902145835 86 190 5.0 9.0 0.00 0.00 0.00 70 1014.2
20260902144833 85 169 5.0 9.0 0.00 0.00 0.00 71 1014.3
20260902143854 83 192 4.0 8.0 0.00 0.00 0.00 75 1014.3
20260902142823 83 173 4.0 7.0 0.00 0.00 0.00 76 1014.4
20260902141830 82 184 3.0 5.0 0.00 0.00 0.00 79 1014.5
20260902135621 79 186 2.0 6.0 0.00 0.00 0.00 81 1014.3
20260902134555 78 81 0.0 0.0 0.00 0.00 0.00 84 1014.3
20260902133528 77 81 0.0 0.0 0.00 0.00 0.00 86 1014.3
20260902132526 77 43 0.0 0.0 0.00 0.00 0.00 89 1014.2
20260902131521 76 43 0.0 0.0 0.00 0.00 0.00 91 1014.1
20260902125418 73 43 0.0 0.0 0.00 0.00 0.00 92 1013.9
20260902124402 72 43 1.0 4.0 0.00 0.00 0.00 92 1013.8
20260902123359 72 43 0.0 3.0 0.00 0.00 0.00 91 1013.7
20260902121224 72 43 0.0 0.0 0.00 0.00 0.00 90 1013.5
20260902120220 73 43 0.0 0.0 0.00 0.00 0.00 90 1013.5
20260902114005 73 43 0.0 0.0 0.00 0.00 0.00 89 1013.4
20260902113001 73 43 0.0 0.0 0.00 0.00 0.00 89 1013.3
20260902110842 73 43 0.0 0.0 0.00 0.00 0.00 89 1013.3
20260902103624 73 43 0.0 0.0 0.00 0.00 0.00 89 1013.2
20260902102645 74 43 0.0 0.0 0.00 0.00 0.00 88 1013.2
20260902101631 74 43 0.0 0.0 0.00 0.00 0.00 87 1013.3
20260902100626 74 43 0.0 0.0 0.00 0.00 0.00 87 1013.3
20260902095558 74 43 0.0 0.0 0.00 0.00 0.00 87 1013.4
20260902094541 74 43 0.0 0.0 0.00 0.00 0.00 86 1013.5
20260902093529 75 43 0.0 0.0 0.00 0.00 0.00 85 1013.5
20260902092533 75 43 0.0 0.0 0.00 0.00 0.00 85 1013.5
20260902090402 76 43 0.0 0.0 0.00 0.00 0.00 84 1013.6
20260902085334 76 43 0.0 0.0 0.00 0.00 0.00 83 1013.5
20260902084259 76 43 0.0 1.0 0.00 0.00 0.00 83 1013.6
20260902082159 77 43 0.0 4.0 0.00 0.00 0.00 82 1013.4
20260902081140 77 46 0.0 4.0 0.00 0.00 0.00 81 1013.5
20260902080148 77 59 0.0 3.0 0.00 0.00 0.00 81 1013.4
20260902075204 77 58 0.0 3.0 0.00 0.00 0.00 81 1013.4
20260902074216 77 55 0.0 3.0 0.00 0.00 0.00 80 1013.3
20260902073204 77 61 1.0 3.0 0.00 0.00 0.00 79 1013.5
20260902072218 78 30 1.0 4.0 0.00 0.00 0.00 79 1013.6
20260902070055 78 66 1.0 4.0 0.00 0.00 0.00 78 1013.7
20260902065035 78 57 1.0 4.0 0.00 0.00 0.00 78 1013.7